Theta_e
284 284 284 284 284 283 283 283 283 284 285 285 284 284 283 282 281 281 281 280 279 279
284 283 283 284 284 283 283 283 283 284 284 284 283 283 281 281 280 280 280 279 279 278
284 284 284 284 283 283 283 283 282 282 282 282 282 281 281 280 280 279 279 279 278 278
283 284 284 283 283 283 283 283 282 282 282 282 281 280 280 279 279 279 279 278 278 278
283 283 283 283 283 283 282 283 282 282 281 281 280 279 279 279 279 278 278 278 278 277
283 283 283 283 282 282 282 282 281 281 281 280 280 280 279 279 279 278 278 278 278 277
282 283 283 283 282 282 282 280 280 279 279 279 279 279 280 279 279 278 278 279 278 277
282 283 282 282 281 281 281 281 281 279 278 279 279 280 279 279 278 278 278 279 279 279
281 281 281 281 280 280 280 279 279 279 278 278 280 284 283 280 278 279 278 276 276 276
280 281 280 280 280 280 279 279 278 277 277 276 278 285 284 282 278 276 274 274 274 274
280 280 280 280 279 278 278 277 276 275 275 275 278 285 284 279 273 271 270 270 269 269
279 278 278 277 276 276 275 275 274 275 276 278 281 284 281 275 271 269 267 268 268 269
278 278 277 276 275 275 275 275 277 277 279 278 280 282 279 273 270 268 267 265 266 274
275 275 275 275 274 275 276 277 276 275 275 275 276 278 278 275 269 267 266 265 264 265
Wind_Speed
10 8 8 9 8 8 7 6 6 6 7 7 8 7 6 4 4 5 4 7 4 3
9 10 10 11 9 8 6 5 7 7 7 8 8 8 7 5 5 5 4 5 5 4
10 10 8 9 11 10 8 8 8 7 7 7 7 7 7 5 5 6 4 4 6 3
9 9 10 10 10 11 10 10 10 9 8 8 8 7 6 6 6 7 6 5 6 5
9 9 10 10 11 10 11 10 10 8 7 7 7 7 7 8 6 7 7 6 6 6
10 11 11 10 10 10 10 10 9 9 9 8 8 8 6 6 7 6 6 6 6 6
11 12 11 10 11 11 11 10 8 8 7 7 7 7 7 7 7 6 6 5 5 5
9 8 8 9 9 10 10 10 10 9 7 8 8 7 7 8 7 7 7 7 7 6
7 8 9 10 10 10 10 10 10 9 9 8 5 15 16 11 8 8 9 8 7 7
8 9 9 9 11 11 11 11 10 9 9 7 6 16 16 16 8 8 8 8 7 6
8 8 8 9 9 9 9 10 10 9 9 8 5 17 17 19 10 9 8 7 6 6
9 10 9 9 9 8 11 9 8 8 10 10 9 21 19 17 11 10 8 6 6 5
8 10 10 10 11 7 9 11 10 11 11 13 13 22 20 16 9 10 7 5 5 8
7 9 11 11 10 11 13 14 13 14 12 13 12 15 19 19 8 8 6 5 3 3
Wind_Direction
173 176 180 177 175 184 187 184 161 162 160 158 153 151 154 150 163 163 155 156 156 153
171 174 181 175 173 176 166 159 159 163 160 158 157 157 156 153 158 146 147 146 141 130
178 178 167 164 170 169 161 161 162 163 162 157 154 151 147 141 146 140 139 137 136 120
178 174 165 170 173 170 161 165 168 169 165 161 156 150 138 136 144 142 140 137 136 126
171 166 169 171 171 168 170 167 166 157 155 151 145 143 145 151 154 149 148 144 130 129
174 176 179 174 167 165 162 163 153 153 158 155 150 147 142 143 146 143 141 141 137 139
182 185 181 170 166 162 160 153 151 150 142 142 140 143 144 141 133 129 125 121 119 124
182 176 161 156 159 155 157 157 151 140 135 138 145 150 141 136 129 127 111 97 98 93
155 155 162 157 149 147 145 143 142 144 143 142 148 163 155 136 129 124 119 109 91 82
156 157 158 152 148 150 149 140 141 137 138 135 129 158 148 133 115 111 108 111 106 91
148 145 144 146 145 132 138 138 137 129 125 125 138 145 131 116 100 93 84 91 96 103
143 137 136 133 132 128 122 117 116 123 124 127 131 128 127 110 102 97 91 89 90 91
135 139 132 126 124 110 111 114 114 107 104 104 115 127 126 111 113 107 100 71 52 98
89 105 115 109 110 115 117 114 109 103 97 96 104 114 116 115 105 114 104 92 62 356